Tracking 28799 objects as of 18-Apr-2024
HD Live streaming from Space Station
objects crossing your sky now

FREGAT R/B

Track FREGAT R/B now!
10-day predictions


NORAD ID: 44116
Int'l Code: 2019-020E
Perigee: 7,671.6 km
Apogee: 7,696.9 km
Inclination: 0.1 °
Period: 276.4 minutes
Semi major axis: 14055 km
RCS: Unknown
Launch date: April 4, 2019
Source: Commonwealth of Independent States (former USSR) (CIS)
Launch site: FRENCH GUIANA (FRGUI)

Note: This is a ROCKET BODY
Your satellite tracking list
Your tracking list is empty




NASA's NSSDC Master Catalog

Two Line Element Set (TLE):
1 44116U 19020E   24108.09974093 -.00000027  00000-0  00000-0 0  9994
2 44116   0.0735 306.7669 0009028  39.0401  14.1657  5.21008563 95273
Source of the keplerian elements: AFSPC